SCP
0 0 0 0 -0 0 0 -0 -0 -0 -0 -0 -0 -0 -0 -0 -0 -0 -0 -0 -0 -0 -0 -0 -0 -0 -0 -0 -0 -0 -0 -0 -0 -0 -0 -0 -0 -0 -0 -0 -0 -0 -0
0 -0 0 0 -0 0 0 0 -0 0 -0 -0 -0 -0 -0 -0 -0 -0 -0 -0 -0 -0 -0 -0 -0 -0 -0 -0 -0 -0 -0 -0 -0 -0 -0 -0 -0 -0 -0 -0 -0 -0 -0
-0 -0 -0 0 0 -0 0 0 -0 -0 -0 -0 -0 -0 -0 -0 -0 -0 -0 -0 -0 -0 -0 -0 -0 -0 -0 -0 -0 -0 -0 -0 -0 -0 -0 0 -0 -0 -0 -0 -0 -0 -0
-0 0 -0 0 -0 -0 0 -0 -0 -0 0 -0 -0 -0 -0 -0 -0 -0 -0 -0 -0 -0 -0 -0 -0 -0 -0 -0 -0 -0 -0 -0 -0 -0 -0 -0 -0 -0 -0 -0 -0 -0 -0
-0 -0 -0 -0 -0 0 -0 -0 -0 -0 -0 -0 -0 -0 -0 -0 -0 -0 -0 -0 -0 -0 -0 -0 -0 -0 -0 -0 -0 -0 -0 -0 -0 -0 0 0 -0 -0 -0 -0 -0 -0 -0
-0 -0 -0 0 -0 -0 0 -0 -0 -0 -0 -0 -0 -0 -0 -0 -0 -0 -0 -0 -0 -0 -0 -0 -0 -0 -0 -0 -0 -0 -0 -0 -0 0 0 -0 -0 -0 -0 -0 -0 -0 -0
0 0 0 0 0 0 0 0 0 0 -0 -0 -0 -0 -0 -0 -0 -0 -0 -0 -0 -0 -0 -0 -0 -0 -0 -0 -0 -0 -0 -0 0 0 0 0 -0 -0 -0 -0 -0 -0 -0
0 0 0 0 0 0 0 -0 -0 -0 -0 -0 -0 -0 -0 -0 -0 -0 -0 -0 -0 -0 -0 -0 -0 -0 -0 -0 -0 -0 -0 0 0 0 0 0 -0 -0 -0 -0 -0 -0 -0
0 0 0 0 0 0 0 0 -0 -0 -0 -0 -0 -0 -0 -0 -0 -0 -0 -0 -0 -0 -0 -0 -0 -0 -0 -0 -0 -0 -0 -0 0 0 0 0 0 -0 -0 0 0 0 0
0 0 0 0 0 0 0 0 -0 -0 -0 -0 -0 -0 -0 -0 -0 -0 -0 -0 -0 -0 -0 -0 0 0 0 0 0 0 0 0 0 0 0 0 0 0 0 0 0 0 0
0 -0 -0 -0 -0 -0 -0 -0 -0 -0 -0 -0 -0 -0 -0 -0 -0 0 0 0 0 0 0 0 0 0 0 0 0 0 0 0 0 0 0 0 0 0 0 0 0 0 0
-0 -0 -0 -0 -0 -0 -0 -0 -0 -0 -0 -0 -0 -0 -0 0 0 0 0 0 0 0 0 0 0 0 0 0 0 0 0 0 0 0 0 0 0 0 0 0 0 0 0
-0 -0 -0 -0 -0 -0 -0 -0 -0 -0 -0 -0 -0 -0 -0 0 0 0 0 0 0 0 0 0 0 0 0 0 0 0 0 0 0 0 0 0 0 0 0 0 0 0 0
-0 -0 -0 -0 -0 -0 -0 -0 -0 -0 0 0 0 -0 0 0 0 0 0 0 0 0 0 0 0 0 0 0 0 0 0 0 0 0 0 0 0 0 0 0 0 0 0
-0 -0 -0 -0 -0 -0 -0 -0 -0 -0 -0 0 0 0 0 0 0 0 0 0 0 0 0 0 0 0 0 0 0 0 0 0 0 0 0 0 0 0 0 0 0 0 0
-0 -0 -0 -0 -0 -0 -0 -0 -0 -0 -0 0 0 0 0 0 0 0 0 0 0 0 0 0 0 0 0 0 0 0 0 0 0 0 0 0 0 0 0 0 0 0 0
-0 0 -0 -0 -0 -0 -0 -0 -0 -0 0 0 0 0 0 0 0 0 0 0 0 0 0 0 0 0 0 0 0 0 0 0 0 0 0 0 0 0 0 0 0 0 0
0 0 0 0 0 -0 -0 -0 0 0 0 0 0 0 0 0 0 0 0 0 0 0 0 0 0 0 0 0 0 0 0 0 0 0 0 0 0 0 0 0 0 0 0
0 0 0 0 0 0 0 0 0 0 0 0 0 0 0 0 0 0 0 0 0 0 0 0 0 0 0 0 0 0 0 0 0 0 0 0 0 0 0 0 0 0 0
0 0 0 0 0 0 0 0 0 0 0 0 0 0 0 0 0 0 0 0 0 0 0 0 0 0 0 0 0 0 0 0 0 0 0 0 0 0 0 0 0 0 0
0 0 0 0 0 0 0 0 0 0 0 0 0 0 0 0 0 0 0 0 0 0 0 0 0 0 0 0 0 0 0 0 0 0 0 0 0 0 0 0 0 0 0
0 0 0 0 0 0 0 0 0 0 0 0 0 0 0 0 0 0 0 0 0 0 0 0 0 0 0 0 0 0 0 0 0 0 0 0 0 0 0 0 0 0 0
0 0 0 0 0 0 0 0 0 0 0 0 0 0 0 0 0 0 0 0 0 0 0 0 0 0 0 0 0 0 0 0 0 0 0 0 0 0 0 0 0 0 0
0 0 0 0 0 0 0 0 0 0 0 0 0 0 0 0 0 0 0 0 0 0 0 0 0 0 0 0 0 0 0 0 0 0 0 0 0 0 0 0 0 0 0
0 0 0 0 0 0 0 0 0 0 0 0 0 0 0 0 0 0 0 0 0 0 0 0 0 0 0 0 0 0 0 0 0 0 0 0 0 0 0 0 0 0 0
0 0 0 0 0 0 0 0 0 0 0 0 0 0 0 0 0 0 0 0 0 0 0 0 0 0 0 0 0 0 0 0 0 0 0 0 0 0 0 0 0 0 0
Wind_Speed_500mb
39 35 36 29 23 19 23 26 24 17 13 24 19 15 12 14 19 21 19 20 21 26 34 29 28 29 26 24 26 31 35 35 34 33 32 28 28 27 24 23 27 35 33
45 42 32 21 17 15 17 19 21 21 20 18 20 20 15 18 18 18 19 21 25 28 31 33 35 31 29 29 29 28 31 32 32 39 38 40 37 36 36 36 37 40 42
47 41 26 23 20 18 18 18 17 16 16 18 24 19 16 13 13 16 20 22 24 29 30 33 31 32 31 32 32 38 40 40 42 45 44 46 41 36 35 36 37 37 38
45 33 36 32 22 17 17 19 19 21 23 27 25 19 13 12 12 15 20 23 25 33 34 30 27 28 30 29 38 36 37 38 40 43 39 41 36 29 28 33 34 43 43
41 42 36 29 23 21 20 21 20 22 24 29 28 18 12 13 10 14 18 25 27 27 31 28 28 27 30 35 34 34 35 36 36 30 31 30 28 25 28 34 39 36 39
45 40 36 28 21 20 19 19 18 19 21 21 22 14 9 10 11 13 14 20 24 22 27 26 23 29 31 29 29 32 33 28 17 19 27 28 29 26 27 28 24 34 37
45 42 35 27 22 19 18 17 17 18 19 19 14 9 9 11 12 12 10 12 16 15 29 20 25 23 28 27 29 29 21 17 12 13 30 29 26 29 31 33 31 33 35
42 38 34 31 26 21 19 18 18 18 17 17 17 13 11 11 11 10 10 9 7 13 24 20 15 14 14 18 23 23 15 9 5 11 21 24 26 28 29 31 30 30 31
37 35 34 32 30 24 19 16 17 16 15 14 14 12 10 9 10 9 9 9 7 9 20 14 12 12 11 11 9 6 1 3 8 12 9 21 25 29 26 30 27 27 29
38 35 34 33 32 27 23 19 17 16 14 13 12 10 9 8 9 9 9 8 7 9 14 9 9 7 6 4 4 6 1 12 7 9 5 18 20 29 25 24 24 24 29
43 38 36 35 33 30 27 22 20 19 18 16 13 11 8 6 7 7 7 6 7 6 6 7 5 5 4 4 4 3 6 12 12 7 3 6 19 23 24 22 20 23 26
51 46 43 40 37 35 32 28 24 22 19 17 14 10 7 5 4 5 6 5 5 4 2 3 3 3 2 2 3 7 13 15 14 7 4 2 16 19 21 22 21 21 20
50 49 47 44 40 38 37 33 32 27 23 21 20 16 14 12 9 7 6 6 6 3 1 1 1 2 3 4 5 6 14 19 14 12 12 10 14 18 18 15 17 18 17
49 48 44 43 41 41 42 41 38 35 31 29 25 23 20 16 15 14 13 11 9 5 5 3 2 2 4 6 8 7 16 16 15 17 16 15 14 12 17 14 15 16 17
47 45 44 42 42 43 46 46 44 41 36 32 31 30 28 25 22 21 18 17 14 11 9 7 2 2 5 7 10 13 20 21 21 22 20 19 17 18 15 18 17 16 18
46 49 46 45 42 40 41 46 48 46 41 41 40 38 35 31 29 27 21 23 20 16 15 15 14 11 11 14 13 13 18 25 29 29 29 28 24 22 20 17 19 20 16
46 49 51 52 50 48 44 40 45 48 48 47 47 44 42 38 35 34 30 24 26 24 22 19 19 19 20 23 22 22 25 30 32 34 35 32 33 30 30 27 22 23 24
51 54 54 56 58 58 55 50 46 45 47 45 42 42 42 42 42 42 39 36 35 34 35 35 31 29 29 32 29 30 33 35 40 38 39 40 42 40 37 36 31 28 25
51 53 56 61 62 63 63 61 57 52 51 51 49 46 46 46 47 48 46 45 45 44 46 48 46 43 41 39 42 40 43 45 46 45 47 48 49 50 50 51 45 40 34
53 56 57 60 65 66 66 70 67 65 63 62 62 60 55 54 54 55 54 52 51 54 53 54 57 58 55 52 51 51 51 52 55 54 53 56 59 59 59 61 59 58 54
48 56 60 60 61 68 72 74 79 77 72 71 70 69 68 64 62 63 62 61 60 59 60 60 65 69 68 66 59 60 62 63 67 66 64 66 67 66 68 68 69 69 66
43 45 51 57 61 64 70 73 79 78 79 74 73 73 73 71 71 69 69 69 67 69 66 66 72 73 74 75 74 70 59 71 80 75 77 76 72 75 76 75 75 77 75
30 38 41 44 55 65 69 75 80 84 85 83 82 81 81 79 78 77 76 73 74 75 80 77 77 80 81 79 84 74 27 40 55 62 73 84 85 85 83 84 86 82 85
17 6 21 33 40 47 60 75 79 82 85 78 79 79 82 83 83 83 82 81 79 77 77 78 79 84 90 88 88 91 91 97 57 51 60 62 81 89 91 94 91 94 93
28 23 20 11 9 22 37 50 64 75 81 82 82 81 79 78 77 81 81 79 81 79 81 82 84 89 92 93 91 94 97 99 104 96 70 71 76 76 90 97 100 97 98
54 49 41 32 22 15 11 17 32 45 56 67 74 78 78 77 75 71 69 73 78 81 84 89 89 92 90 91 107 93 100 96 98 105 106 105 120 105 103 91 98 98 101
Wind_Direction_500mb
160 149 142 130 122 121 110 113 104 104 126 117 113 108 95 81 73 63 68 85 91 91 92 88 104 104 104 105 106 103 103 102 102 98 93 94 91 88 86 85 88 83 84
158 153 150 144 119 119 117 102 95 100 99 112 121 112 101 91 73 62 74 83 87 89 96 91 87 92 96 95 97 103 104 102 97 87 86 81 81 83 87 84 87 88 86
157 154 154 137 126 116 120 121 122 121 103 104 113 119 124 92 71 72 88 92 93 92 94 98 88 89 92 99 98 97 93 93 97 106 101 96 95 95 92 95 97 93 92
157 158 151 147 144 135 131 127 131 132 136 138 123 135 132 110 82 80 99 102 99 98 100 106 101 88 94 97 106 96 100 105 108 103 105 106 110 103 109 100 91 90 89
160 156 149 147 149 142 140 132 135 134 139 141 136 155 139 113 101 94 107 112 107 102 102 107 96 90 92 96 96 106 111 112 112 111 110 110 105 103 103 98 98 93 92
160 158 158 150 147 142 139 138 137 129 126 132 140 147 128 98 91 93 102 114 119 109 103 111 95 95 95 103 108 112 112 111 112 115 105 102 98 107 100 99 95 92 94
166 164 166 164 158 152 144 147 142 131 124 121 123 113 77 84 85 87 94 119 124 114 102 109 109 107 114 121 121 114 116 106 107 121 100 95 101 100 96 99 96 94 91
169 173 176 174 173 167 160 158 156 143 130 119 108 99 87 89 96 104 107 120 134 102 122 138 128 126 112 112 123 123 112 77 102 106 101 104 108 106 101 99 103 94 94
181 182 182 180 182 180 176 170 164 150 139 125 116 109 99 109 110 115 122 133 140 122 133 144 143 130 124 116 121 146 99 47 125 100 92 115 108 103 98 96 97 98 93
188 192 193 190 191 191 193 187 168 171 165 156 148 131 119 117 113 118 128 140 138 149 140 124 139 124 133 157 208 240 250 134 115 109 71 106 119 112 109 102 100 106 103
198 200 202 202 201 201 205 200 188 187 188 180 175 166 150 132 120 118 122 139 129 169 135 140 143 152 169 160 158 182 170 153 145 141 62 91 119 115 113 108 108 110 109
201 203 208 210 210 210 213 214 209 205 205 202 200 198 195 180 177 169 158 161 162 205 121 129 112 147 189 191 198 215 208 175 181 168 239 289 143 132 124 118 114 113 113
203 206 210 213 217 220 222 223 224 220 218 219 220 221 224 222 219 213 213 215 215 230 216 172 124 193 242 264 265 228 207 188 209 230 244 250 192 148 140 141 132 127 124
212 213 214 215 220 224 228 230 232 229 226 226 228 229 237 242 236 231 230 227 231 224 202 188 209 259 294 290 273 253 203 220 230 241 249 236 197 195 167 160 158 147 140
221 221 220 223 227 229 232 234 236 238 238 239 239 241 243 243 242 237 238 231 235 226 207 195 174 334 318 294 271 253 214 226 230 241 248 228 212 211 207 179 166 172 158
230 228 228 230 232 235 239 239 242 244 244 245 246 246 245 245 244 242 249 241 240 238 225 223 226 241 281 277 268 254 245 247 258 248 242 231 213 218 222 218 191 183 179
241 239 235 236 238 240 243 246 249 252 250 247 249 249 249 249 248 245 245 256 253 254 240 254 266 269 270 273 273 272 256 253 260 260 256 246 249 229 228 234 224 202 191
244 244 243 242 242 244 246 247 251 256 256 254 249 252 250 251 251 249 249 250 253 253 252 249 254 265 272 270 267 271 260 264 259 264 260 257 254 253 235 224 223 214 219
249 248 247 246 246 247 248 249 251 258 259 262 262 256 254 255 253 255 250 252 252 255 255 251 256 259 255 261 264 258 257 249 252 261 263 261 261 258 254 251 242 243 237
250 249 250 250 250 250 251 250 251 252 257 258 261 263 260 256 256 254 256 256 253 254 257 258 256 258 261 262 260 259 257 256 254 257 260 256 257 261 259 257 255 257 261
250 252 251 252 250 247 247 247 247 249 252 255 258 262 265 264 261 259 261 259 256 258 261 262 258 258 259 257 257 257 256 256 255 257 260 259 256 255 257 259 256 257 258
247 248 250 250 252 252 250 252 251 254 256 259 261 263 265 267 266 264 262 262 263 262 260 263 261 264 264 258 257 252 249 253 256 258 258 259 262 260 258 257 256 252 255
236 243 247 250 249 252 253 252 253 253 256 258 258 260 262 264 266 266 265 265 265 264 262 264 264 263 262 261 258 255 252 251 258 263 264 258 257 255 257 258 254 256 253
48 299 258 254 252 253 252 253 255 257 258 264 266 268 267 267 268 267 268 267 266 265 267 269 268 269 262 261 255 255 262 258 261 270 265 266 260 255 259 254 256 253 253
53 48 45 28 294 267 259 257 257 259 263 266 268 270 271 272 272 270 271 273 273 273 272 270 270 268 266 261 266 264 258 257 258 257 265 266 260 263 264 255 253 254 252
65 60 54 48 42 25 340 288 272 266 266 268 270 272 275 276 276 274 271 272 273 273 271 271 270 270 272 268 275 262 262 264 265 261 261 279 266 269 268 263 264 258 258
Wind_Speed_850mb
39 35 36 29 23 19 23 26 24 17 13 24 19 15 12 14 19 21 19 20 21 26 34 29 28 29 26 24 26 31 35 35 34 33 32 28 28 27 24 23 27 35 33
45 42 32 21 17 15 17 19 21 21 20 18 20 20 15 18 18 18 19 21 25 28 31 33 35 31 29 29 29 28 31 32 32 39 38 40 37 36 36 36 37 40 42
47 41 26 23 20 18 18 18 17 16 16 18 24 19 16 13 13 16 20 22 24 29 30 33 31 32 31 32 32 38 40 40 42 45 44 46 41 36 35 36 37 37 38
45 33 36 32 22 17 17 19 19 21 23 27 25 19 13 12 12 15 20 23 25 33 34 30 27 28 30 29 38 36 37 38 40 43 39 41 36 29 28 33 34 43 43
41 42 36 29 23 21 20 21 20 22 24 29 28 18 12 13 10 14 18 25 27 27 31 28 28 27 30 35 34 34 35 36 36 30 31 30 28 25 28 34 39 36 39
45 40 36 28 21 20 19 19 18 19 21 21 22 14 9 10 11 13 14 20 24 22 27 26 23 29 31 29 29 32 33 28 17 19 27 28 29 26 27 28 24 34 37
45 42 35 27 22 19 18 17 17 18 19 19 14 9 9 11 12 12 10 12 16 15 29 20 25 23 28 27 29 29 21 17 12 13 30 29 26 29 31 33 31 33 35
42 38 34 31 26 21 19 18 18 18 17 17 17 13 11 11 11 10 10 9 7 13 24 20 15 14 14 18 23 23 15 9 5 11 21 24 26 28 29 31 30 30 31
37 35 34 32 30 24 19 16 17 16 15 14 14 12 10 9 10 9 9 9 7 9 20 14 12 12 11 11 9 6 1 3 8 12 9 21 25 29 26 30 27 27 29
38 35 34 33 32 27 23 19 17 16 14 13 12 10 9 8 9 9 9 8 7 9 14 9 9 7 6 4 4 6 1 12 7 9 5 18 20 29 25 24 24 24 29
43 38 36 35 33 30 27 22 20 19 18 16 13 11 8 6 7 7 7 6 7 6 6 7 5 5 4 4 4 3 6 12 12 7 3 6 19 23 24 22 20 23 26
51 46 43 40 37 35 32 28 24 22 19 17 14 10 7 5 4 5 6 5 5 4 2 3 3 3 2 2 3 7 13 15 14 7 4 2 16 19 21 22 21 21 20
50 49 47 44 40 38 37 33 32 27 23 21 20 16 14 12 9 7 6 6 6 3 1 1 1 2 3 4 5 6 14 19 14 12 12 10 14 18 18 15 17 18 17
49 48 44 43 41 41 42 41 38 35 31 29 25 23 20 16 15 14 13 11 9 5 5 3 2 2 4 6 8 7 16 16 15 17 16 15 14 12 17 14 15 16 17
47 45 44 42 42 43 46 46 44 41 36 32 31 30 28 25 22 21 18 17 14 11 9 7 2 2 5 7 10 13 20 21 21 22 20 19 17 18 15 18 17 16 18
46 49 46 45 42 40 41 46 48 46 41 41 40 38 35 31 29 27 21 23 20 16 15 15 14 11 11 14 13 13 18 25 29 29 29 28 24 22 20 17 19 20 16
46 49 51 52 50 48 44 40 45 48 48 47 47 44 42 38 35 34 30 24 26 24 22 19 19 19 20 23 22 22 25 30 32 34 35 32 33 30 30 27 22 23 24
51 54 54 56 58 58 55 50 46 45 47 45 42 42 42 42 42 42 39 36 35 34 35 35 31 29 29 32 29 30 33 35 40 38 39 40 42 40 37 36 31 28 25
51 53 56 61 62 63 63 61 57 52 51 51 49 46 46 46 47 48 46 45 45 44 46 48 46 43 41 39 42 40 43 45 46 45 47 48 49 50 50 51 45 40 34
53 56 57 60 65 66 66 70 67 65 63 62 62 60 55 54 54 55 54 52 51 54 53 54 57 58 55 52 51 51 51 52 55 54 53 56 59 59 59 61 59 58 54
48 56 60 60 61 68 72 74 79 77 72 71 70 69 68 64 62 63 62 61 60 59 60 60 65 69 68 66 59 60 62 63 67 66 64 66 67 66 68 68 69 69 66
43 45 51 57 61 64 70 73 79 78 79 74 73 73 73 71 71 69 69 69 67 69 66 66 72 73 74 75 74 70 59 71 80 75 77 76 72 75 76 75 75 77 75
30 38 41 44 55 65 69 75 80 84 85 83 82 81 81 79 78 77 76 73 74 75 80 77 77 80 81 79 84 74 27 40 55 62 73 84 85 85 83 84 86 82 85
17 6 21 33 40 47 60 75 79 82 85 78 79 79 82 83 83 83 82 81 79 77 77 78 79 84 90 88 88 91 91 97 57 51 60 62 81 89 91 94 91 94 93
28 23 20 11 9 22 37 50 64 75 81 82 82 81 79 78 77 81 81 79 81 79 81 82 84 89 92 93 91 94 97 99 104 96 70 71 76 76 90 97 100 97 98
54 49 41 32 22 15 11 17 32 45 56 67 74 78 78 77 75 71 69 73 78 81 84 89 89 92 90 91 107 93 100 96 98 105 106 105 120 105 103 91 98 98 101
Wind_Direction_850mb
160 149 142 130 122 121 110 113 104 104 126 117 113 108 95 81 73 63 68 85 91 91 92 88 104 104 104 105 106 103 103 102 102 98 93 94 91 88 86 85 88 83 84
158 153 150 144 119 119 117 102 95 100 99 112 121 112 101 91 73 62 74 83 87 89 96 91 87 92 96 95 97 103 104 102 97 87 86 81 81 83 87 84 87 88 86
157 154 154 137 126 116 120 121 122 121 103 104 113 119 124 92 71 72 88 92 93 92 94 98 88 89 92 99 98 97 93 93 97 106 101 96 95 95 92 95 97 93 92
157 158 151 147 144 135 131 127 131 132 136 138 123 135 132 110 82 80 99 102 99 98 100 106 101 88 94 97 106 96 100 105 108 103 105 106 110 103 109 100 91 90 89
160 156 149 147 149 142 140 132 135 134 139 141 136 155 139 113 101 94 107 112 107 102 102 107 96 90 92 96 96 106 111 112 112 111 110 110 105 103 103 98 98 93 92
160 158 158 150 147 142 139 138 137 129 126 132 140 147 128 98 91 93 102 114 119 109 103 111 95 95 95 103 108 112 112 111 112 115 105 102 98 107 100 99 95 92 94
166 164 166 164 158 152 144 147 142 131 124 121 123 113 77 84 85 87 94 119 124 114 102 109 109 107 114 121 121 114 116 106 107 121 100 95 101 100 96 99 96 94 91
169 173 176 174 173 167 160 158 156 143 130 119 108 99 87 89 96 104 107 120 134 102 122 138 128 126 112 112 123 123 112 77 102 106 101 104 108 106 101 99 103 94 94
181 182 182 180 182 180 176 170 164 150 139 125 116 109 99 109 110 115 122 133 140 122 133 144 143 130 124 116 121 146 99 47 125 100 92 115 108 103 98 96 97 98 93
188 192 193 190 191 191 193 187 168 171 165 156 148 131 119 117 113 118 128 140 138 149 140 124 139 124 133 157 208 240 250 134 115 109 71 106 119 112 109 102 100 106 103
198 200 202 202 201 201 205 200 188 187 188 180 175 166 150 132 120 118 122 139 129 169 135 140 143 152 169 160 158 182 170 153 145 141 62 91 119 115 113 108 108 110 109
201 203 208 210 210 210 213 214 209 205 205 202 200 198 195 180 177 169 158 161 162 205 121 129 112 147 189 191 198 215 208 175 181 168 239 289 143 132 124 118 114 113 113
203 206 210 213 217 220 222 223 224 220 218 219 220 221 224 222 219 213 213 215 215 230 216 172 124 193 242 264 265 228 207 188 209 230 244 250 192 148 140 141 132 127 124
212 213 214 215 220 224 228 230 232 229 226 226 228 229 237 242 236 231 230 227 231 224 202 188 209 259 294 290 273 253 203 220 230 241 249 236 197 195 167 160 158 147 140
221 221 220 223 227 229 232 234 236 238 238 239 239 241 243 243 242 237 238 231 235 226 207 195 174 334 318 294 271 253 214 226 230 241 248 228 212 211 207 179 166 172 158
230 228 228 230 232 235 239 239 242 244 244 245 246 246 245 245 244 242 249 241 240 238 225 223 226 241 281 277 268 254 245 247 258 248 242 231 213 218 222 218 191 183 179
241 239 235 236 238 240 243 246 249 252 250 247 249 249 249 249 248 245 245 256 253 254 240 254 266 269 270 273 273 272 256 253 260 260 256 246 249 229 228 234 224 202 191
244 244 243 242 242 244 246 247 251 256 256 254 249 252 250 251 251 249 249 250 253 253 252 249 254 265 272 270 267 271 260 264 259 264 260 257 254 253 235 224 223 214 219
249 248 247 246 246 247 248 249 251 258 259 262 262 256 254 255 253 255 250 252 252 255 255 251 256 259 255 261 264 258 257 249 252 261 263 261 261 258 254 251 242 243 237
250 249 250 250 250 250 251 250 251 252 257 258 261 263 260 256 256 254 256 256 253 254 257 258 256 258 261 262 260 259 257 256 254 257 260 256 257 261 259 257 255 257 261
250 252 251 252 250 247 247 247 247 249 252 255 258 262 265 264 261 259 261 259 256 258 261 262 258 258 259 257 257 257 256 256 255 257 260 259 256 255 257 259 256 257 258
247 248 250 250 252 252 250 252 251 254 256 259 261 263 265 267 266 264 262 262 263 262 260 263 261 264 264 258 257 252 249 253 256 258 258 259 262 260 258 257 256 252 255
236 243 247 250 249 252 253 252 253 253 256 258 258 260 262 264 266 266 265 265 265 264 262 264 264 263 262 261 258 255 252 251 258 263 264 258 257 255 257 258 254 256 253
48 299 258 254 252 253 252 253 255 257 258 264 266 268 267 267 268 267 268 267 266 265 267 269 268 269 262 261 255 255 262 258 261 270 265 266 260 255 259 254 256 253 253
53 48 45 28 294 267 259 257 257 259 263 266 268 270 271 272 272 270 271 273 273 273 272 270 270 268 266 261 266 264 258 257 258 257 265 266 260 263 264 255 253 254 252
65 60 54 48 42 25 340 288 272 266 266 268 270 272 275 276 276 274 271 272 273 273 271 271 270 270 272 268 275 262 262 264 265 261 261 279 266 269 268 263 264 258 258